[[{"header":{"parameterUnit":"m.s-1","parameterCategory":1,"la1":30.2991,"la2":30.254,"lo1":-89.0895,"lo2":-89.0444,"dy":0.0017,"dx":0.0017,"nx":28,"ny":28,"refTime":"2025-01-20T09:00:00:Z","depth":0,"parameterNumber":2,"parameterNumberName":"U-component_of_WINDS"},"data":[0,0,0,0,0,0,0,0,0,0,0,0,0,0,0,0,0,0,0,0,0,0,0,0,0,0,0,0,0,0,0,0,0,0,0,0,0,0,0,0,0,0,0,0,0,0,0,0,0,0,0,0,0,0,0,0,0,0,-3.5334,-3.5336,0,-3.5472,-3.5474,-3.5476,-3.542,-3.5417,-3.5414,-3.5411,-3.5556,-3.5563,-3.557,0,0,0,0,0,0,0,0,0,0,0,0,0,-3.5025,-3.5031,-3.5334,-3.5336,-3.5338,-3.5472,-3.5474,-3.5476,-3.5421,-3.5417,-3.5413,-3.5409,-3.5554,-3.5562,-3.557,0,0,0,0,0,0,0,0,0,0,0,0,0,-3.5161,-3.5033,-3.5334,-3.5326,-3.5327,-3.5472,-3.5474,-3.5477,-3.5422,-3.5417,-3.5412,-3.5407,-3.5551,-3.5561,-3.5572,-3.5733,0,0,-3.5603,-3.5608,0,0,0,0,0,0,0,0,-3.5153,-3.5172,-3.5326,-3.5327,-3.5328,-3.5424,-3.5418,-3.5563,-3.5423,-3.5386,-3.5411,-3.5405,-3.5516,-3.5529,-3.5566,-3.574,-3.5747,-3.5604,-3.561,-3.5615,-3.5618,0,0,0,0,0,0,0,-3.5144,-3.5166,-3.5389,-3.5328,-3.5329,-3.5317,-3.5331,-3.5446,-3.5477,-3.5389,-3.5385,-3.5402,-3.5516,-3.5556,-3.5569,-3.5749,-3.5604,-3.5613,-3.562,-3.5624,-3.6062,-3.6068,0,0,0,0,0,0,-3.5134,-3.5159,-3.5385,-3.5393,-3.5227,-3.5326,-3.5342,-3.5398,-3.5476,-3.5483,-3.5406,-3.5399,-3.5541,-3.5557,-3.5574,-3.5769,-3.5615,-3.5625,-3.5631,-3.6057,-3.6064,-3.607,0,0,0,0,0,0,-3.5127,-3.5154,-3.5379,-3.5275,-3.5302,-3.5337,-3.5401,-3.5404,-3.5444,-3.5489,-3.5494,-3.5441,-3.5538,-3.556,-3.5694,-3.5774,-3.5629,-3.5639,-3.6051,-3.6059,-3.6067,-3.6161,0,0,0,0,0,0,-3.5119,-3.5152,-3.5214,-3.5277,-3.5308,-3.5496,-3.5405,-3.541,-3.5461,-3.5453,-3.5523,-3.553,-3.5536,-3.5679,-3.5704,-3.5785,-3.5647,-3.6044,-3.6054,-3.6064,-3.6151,-3.6171,-3.6188,0,0,0,0,0,-3.5108,-3.5236,-3.5217,-3.5245,-3.5385,-3.5501,-3.5519,-3.5522,-3.5468,-3.553,-3.5559,-3.5528,-3.576,-3.5693,-3.5721,-3.5807,-3.6039,-3.6051,-3.6063,-3.6142,-3.6167,-3.6188,0,0,0,0,0,0,-3.5183,-3.5244,-3.5224,-3.5376,-3.5433,-3.5491,-3.557,-3.5548,-3.5623,-3.5613,-3.5614,-3.563,-3.5769,-3.5801,-3.5725,-3.5967,-3.5891,-3.591,-3.5942,-3.5966,-3.5984,-3.5975,-3.5655,0,0,0,0,0,-3.5217,-3.5304,-3.5353,-3.5482,-3.5512,-3.5536,-3.5586,-3.5583,-3.5644,-3.5668,-3.5707,-3.5767,-3.5854,-3.5911,-3.5993,-3.6154,-3.6169,-3.6226,-3.6245,-3.6261,-3.6277,-3.6365,-3.6391,-3.611,-3.611,-3.6109,0,0,-3.5289,-3.5332,-3.5388,-3.5498,-3.5543,-3.5634,-3.5557,-3.5657,-3.5726,-3.5684,-3.5813,-3.5843,-3.5911,-3.6059,-3.6127,-3.609,-3.6358,-3.6276,-3.6288,-3.6297,-3.638,-3.6407,-3.6431,-3.6118,-3.6117,-3.6115,0,0,-3.5466,-3.5508,-3.562,-3.5665,-3.5733,-3.5748,-3.5774,-3.5836,-3.5854,-3.5983,-3.5954,-3.6035,-3.6184,-3.6233,-3.6278,-3.6473,-3.6447,-3.65,-3.6599,-3.6685,-3.6707,-3.6727,-3.6797,-3.6822,-3.6516,-3.6516,-3.6516,0,-3.5547,-3.5683,-3.5681,-3.5783,-3.5833,-3.5797,-3.5912,-3.5956,-3.6048,-3.6083,-3.604,-3.6226,-3.6269,-3.6429,-3.6476,-3.6513,-3.6545,-3.6493,-3.6704,-3.6723,-3.6742,-3.6809,-3.6836,-3.6522,-3.6521,-3.652,-3.652,0,-3.578,-3.5874,-3.5957,-3.6045,-3.6103,-3.6212,-3.6226,-3.6286,-3.6278,-3.6297,-3.643,-3.648,-3.6571,-3.6608,-3.6602,-3.6768,-3.6743,-3.6702,-3.6626,-3.6775,-3.6838,-3.6864,-3.653,-3.6528,-3.6526,-3.6525,0,0,-3.6011,-3.6094,-3.6125,-3.6164,-3.6235,-3.6309,-3.6415,-3.6503,-3.6555,-3.6619,-3.6709,-3.6835,-3.6797,-3.6848,-3.6846,-3.6921,-3.7073,-3.6871,-3.6872,-3.6908,-3.726,-3.7291,-3.7321,-3.7055,-3.706,-3.7064,-3.7254,0,-3.6195,-3.638,-3.6381,-3.6552,-3.664,-3.6606,-3.6699,-3.6753,-3.6774,-3.6852,-3.6875,-3.6965,-3.6908,-3.6938,-3.7011,-3.7039,-3.7144,-3.7025,-3.7141,-3.7145,-3.7127,-3.7354,-3.7388,-3.7565,-3.7279,-3.7283,-3.7286,0,-3.6435,-3.6505,-3.6685,-3.6743,-3.6779,-3.6863,-3.6943,-3.7018,-3.7079,-3.7088,-3.7144,-3.7131,-3.724,-3.7159,-3.731,-3.7229,-3.7276,-3.7297,-3.7304,-3.7316,-3.7226,-3.7374,-3.7622,-3.7649,-3.7325,-3.7322,-3.7319,0,-3.6587,-3.6727,-3.6852,-3.6887,-3.6957,-3.7016,-3.7048,-3.7103,-3.7156,-3.7227,-3.7261,-3.7344,-3.739,-3.7455,-3.7464,-3.7404,-3.7616,-3.7536,-3.7629,-3.7629,-3.7677,-3.7674,-3.7937,-3.7704,-3.7704,-3.7703,-3.7703,0,-3.6794,-3.6906,-3.6921,-3.6999,-3.7123,-3.7122,-3.7246,-3.7273,-3.7322,-3.7405,-3.7381,-3.7459,-3.7466,-3.7547,-3.7555,-3.7679,-3.77,-3.7712,-3.7713,-3.7715,-3.7714,-3.7747,-3.7736,-3.771,-3.7709,-3.7707,-3.7706,0,-3.6986,-3.7001,-3.7136,-3.719,-3.7206,-3.7296,-3.7343,-3.7417,-3.7434,-3.754,-3.7564,-3.7592,-3.7686,-3.7701,-3.7812,-3.7817,-3.7966,-3.7954,-3.7946,-3.7945,-3.8037,-3.8029,-3.8333,-3.8373,-3.8112,-3.8115,-3.8117,0,-3.7118,-3.7203,-3.7266,-3.7319,-3.7354,-3.744,-3.7493,-3.7495,-3.7552,-3.7626,-3.7692,-3.7783,-3.7856,-3.8008,-3.8039,-3.8124,-3.8114,-3.8214,-3.8127,-3.8126,-3.8117,-3.8113,-3.8122,-3.8232,-3.8235,-3.8237,-3.8239,0,-3.7351,-3.7354,-3.7431,-3.7511,-3.7575,-3.7638,-3.7698,-3.7743,-3.7753,-3.7818,-3.7912,-3.7969,-3.8081,-3.8172,-3.8256,-3.829,-3.8267,-3.8266,-3.8292,-3.8296,-3.8289,-3.8295,-3.7994,-3.826,-3.8258,-3.8256,-3.8255,-3.8254,-3.7518,-3.7592,-3.7648,-3.7734,-3.7779,-3.7835,-3.7908,-3.7933,-3.8012,-3.8103,-3.8099,-3.8204,-3.8261,-3.8371,-3.841,-3.8493,-3.846,-3.8498,-3.8508,-3.8518,-3.8527,-3.8274,-3.8508,-3.8507,-3.8507,-3.8506,-3.8506,0,-3.7751,-3.7785,-3.7864,-3.7948,-3.8016,-3.7986,-3.805,-3.811,-3.8202,-3.8257,-3.8329,-3.8438,-3.8526,-3.8563,-3.8649,-3.8708,-3.87,-3.8731,-3.8728,-3.8736,-3.8551,-3.852,-3.8736,-3.8736,-3.8736,-3.8736,-3.8736,-3.8736,-3.7881,-3.8004,-3.8013,-3.8159,-3.8191,-3.8293,-3.8332,-3.8384,-3.8428,-3.855,-3.8623,-3.8645,-3.8694,-3.8783,-3.8863,-3.8871,-3.8905,-3.8941,-3.8945,-3.8772,-3.8749,-3.8727,-3.8698,-3.8948,-3.8948,-3.9124,-3.9125,-3.9127]},{"header":{"parameterUnit":"m.s-1","parameterCategory":1,"la1":30.2991,"la2":30.254,"lo1":-89.0895,"lo2":-89.0444,"dy":0.0017,"dx":0.0017,"nx":28,"ny":28,"refTime":"2025-01-20T09:00:00:Z","depth":0,"parameterNumber":3,"parameterNumberName":"V-component_of_WINDS"},"data":[0,0,0,0,0,0,0,0,0,0,0,0,0,0,0,0,0,0,0,0,0,0,0,0,0,0,0,0,0,0,0,0,0,0,0,0,0,0,0,0,0,0,0,0,0,0,0,0,0,0,0,0,0,0,0,0,0,0,-6.8035,-6.8036,0,-6.8115,-6.8116,-6.8116,-6.8066,-6.8063,-6.8061,-6.8059,-6.8135,-6.8139,-6.8143,0,0,0,0,0,0,0,0,0,0,0,0,0,-6.7832,-6.7836,-6.8035,-6.8036,-6.8037,-6.8115,-6.8116,-6.8117,-6.8066,-6.8063,-6.806,-6.8058,-6.8134,-6.8139,-6.8144,0,0,0,0,0,0,0,0,0,0,0,0,0,-6.7917,-6.7838,-6.8035,-6.8021,-6.8021,-6.8114,-6.8116,-6.8117,-6.8067,-6.8063,-6.806,-6.8056,-6.8132,-6.8138,-6.8145,-6.8254,0,0,-6.8164,-6.8167,0,0,0,0,0,0,0,0,-6.7912,-6.7924,-6.8022,-6.8022,-6.8022,-6.8077,-6.8072,-6.8163,-6.8068,-6.8049,-6.8059,-6.8055,-6.8118,-6.8125,-6.8148,-6.8258,-6.8261,-6.8164,-6.8168,-6.8171,-6.8173,0,0,0,0,0,0,0,-6.7906,-6.7921,-6.8066,-6.8024,-6.8024,-6.8009,-6.8017,-6.8089,-6.8102,-6.805,-6.8047,-6.8057,-6.8117,-6.8142,-6.8149,-6.8262,-6.8164,-6.817,-6.8174,-6.8176,-6.8463,-6.8467,0,0,0,0,0,0,-6.7903,-6.7916,-6.8064,-6.8069,-6.7958,-6.8015,-6.8025,-6.8063,-6.8101,-6.8104,-6.806,-6.8055,-6.8133,-6.8142,-6.8152,-6.8281,-6.8171,-6.8177,-6.8181,-6.8459,-6.8464,-6.8468,0,0,0,0,0,0,-6.7898,-6.7916,-6.8061,-6.7992,-6.8009,-6.8023,-6.8066,-6.8066,-6.8091,-6.8109,-6.811,-6.8083,-6.8131,-6.8143,-6.8229,-6.8283,-6.818,-6.8186,-6.8455,-6.8461,-6.8466,-6.8541,0,0,0,0,0,0,-6.7893,-6.7915,-6.7959,-6.7993,-6.8013,-6.8139,-6.8069,-6.807,-6.8102,-6.8096,-6.8131,-6.8133,-6.8129,-6.822,-6.8235,-6.829,-6.819,-6.845,-6.8457,-6.8464,-6.8534,-6.8549,-6.8562,0,0,0,0,0,-6.7886,-6.7976,-6.7961,-6.7979,-6.8068,-6.8142,-6.8153,-6.8147,-6.8107,-6.8149,-6.8161,-6.8132,-6.8275,-6.8229,-6.8246,-6.8303,-6.8446,-6.8455,-6.8463,-6.8528,-6.8546,-6.8561,0,0,0,0,0,0,-6.7946,-6.798,-6.7964,-6.8069,-6.8103,-6.8133,-6.8187,-6.8167,-6.8212,-6.8203,-6.8193,-6.8201,-6.829,-6.8305,-6.8254,-6.841,-6.8354,-6.8366,-6.8397,-6.8415,-6.8428,-6.8422,-6.8196,0,0,0,0,0,-6.7972,-6.8031,-6.8057,-6.8147,-6.8165,-6.8173,-6.8205,-6.8198,-6.8232,-6.8245,-6.8263,-6.8296,-6.8348,-6.8382,-6.8431,-6.8536,-6.8542,-6.8584,-6.8598,-6.8609,-6.8619,-6.8673,-6.8692,-6.8496,-6.8496,-6.8496,0,0,-6.8025,-6.8051,-6.8089,-6.816,-6.8185,-6.8244,-6.8186,-6.8251,-6.8294,-6.8255,-6.8337,-6.8351,-6.8387,-6.8482,-6.8525,-6.8497,-6.8675,-6.862,-6.8629,-6.8633,-6.8684,-6.8703,-6.8719,-6.8502,-6.8501,-6.85,0,0,-6.8153,-6.8179,-6.8256,-6.8283,-6.8323,-6.8327,-6.8346,-6.8379,-6.8387,-6.847,-6.8441,-6.8491,-6.8581,-6.8607,-6.8632,-6.8767,-6.8742,-6.8783,-6.8855,-6.8908,-6.8923,-6.8937,-6.8983,-6.9,-6.8794,-6.8794,-6.8794,0,-6.8213,-6.8304,-6.8297,-6.8365,-6.8396,-6.8364,-6.844,-6.8466,-6.8519,-6.854,-6.8508,-6.862,-6.8642,-6.8742,-6.8775,-6.8797,-6.8815,-6.8779,-6.8922,-6.8936,-6.8948,-6.8992,-6.901,-6.8799,-6.8798,-6.8798,-6.8797,0,-6.8375,-6.8438,-6.8494,-6.8548,-6.8585,-6.8656,-6.8659,-6.8697,-6.8686,-6.8693,-6.8776,-6.8801,-6.8853,-6.8876,-6.8866,-6.8974,-6.8956,-6.8924,-6.8867,-6.8972,-6.9012,-6.9029,-6.8806,-6.8804,-6.8802,-6.8801,0,0,-6.8543,-6.8592,-6.8612,-6.8635,-6.8676,-6.8723,-6.8792,-6.8845,-6.8876,-6.8913,-6.8969,-6.9046,-6.9016,-6.9044,-6.9036,-6.9083,-6.9185,-6.9044,-6.9045,-6.9068,-6.9304,-6.9326,-6.9346,-6.9169,-6.9172,-6.9175,-6.93,0,-6.8671,-6.8793,-6.8789,-6.8902,-6.8958,-6.8928,-6.8987,-6.9018,-6.9026,-6.9073,-6.9081,-6.9135,-6.9092,-6.9109,-6.9154,-6.9164,-6.9232,-6.9155,-6.9218,-6.9221,-6.9209,-6.9368,-6.9393,-6.9509,-6.9316,-6.9319,-6.9321,0,-6.8837,-6.8881,-6.9,-6.9031,-6.9054,-6.9108,-6.9155,-6.9201,-6.9234,-6.9236,-6.9267,-6.9251,-6.9318,-6.926,-6.9351,-6.9298,-6.9324,-6.9332,-6.9336,-6.9341,-6.9276,-6.9375,-6.9547,-6.9563,-6.9346,-6.9344,-6.9342,0,-6.8945,-6.9034,-6.9116,-6.9137,-6.9175,-6.9213,-6.9231,-6.926,-6.9291,-6.9331,-6.9351,-6.9398,-6.9423,-6.9459,-6.9455,-6.9414,-6.9546,-6.9489,-6.9548,-6.9548,-6.9576,-6.9574,-6.9753,-6.9596,-6.9595,-6.9595,-6.9595,0,-6.9088,-6.9161,-6.9165,-6.9215,-6.9295,-6.9289,-6.9368,-6.9381,-6.9407,-6.9457,-6.9434,-6.9481,-6.9474,-6.952,-6.9518,-6.9592,-6.9604,-6.9605,-6.9604,-6.9607,-6.9606,-6.9622,-6.9613,-6.96,-6.9599,-6.9598,-6.9597,0,-6.9222,-6.9228,-6.9315,-6.9344,-6.9353,-6.9411,-6.9435,-6.9481,-6.9487,-6.9551,-6.9565,-6.9574,-6.9627,-6.9627,-6.9688,-6.9686,-6.9776,-6.9766,-6.9766,-6.9763,-6.9821,-6.9815,-7.0015,-7.004,-6.9868,-6.987,-6.9871,0,-6.9312,-6.9368,-6.9403,-6.9436,-6.9456,-6.951,-6.9541,-6.9536,-6.957,-6.961,-6.9651,-6.9702,-6.9743,-6.983,-6.984,-6.9886,-6.9875,-6.9942,-6.9882,-6.9883,-6.9874,-6.987,-6.9874,-6.9953,-6.9955,-6.9957,-6.9958,0,-6.9471,-6.947,-6.9518,-6.9567,-6.9606,-6.9643,-6.9678,-6.9705,-6.9703,-6.9742,-6.9797,-6.9829,-6.9891,-6.9942,-6.9986,-7.0001,-6.9979,-6.9977,-6.9993,-6.9996,-6.9993,-6.9993,-6.9796,-6.9972,-6.9971,-6.997,-6.9969,-6.9969,-6.9584,-6.9632,-6.9664,-6.9717,-6.9742,-6.9775,-6.9819,-6.9831,-6.9877,-6.9928,-6.9922,-6.9983,-7.0011,-7.0068,-7.0087,-7.0133,-7.0109,-7.0133,-7.0138,-7.0143,-7.0149,-6.9987,-7.0141,-7.0141,-7.014,-7.014,-7.014,0,-6.974,-6.9759,-6.9808,-6.9857,-6.9898,-6.9876,-6.9912,-6.9947,-7.0002,-7.0031,-7.0072,-7.0134,-7.0182,-7.0197,-7.0243,-7.0276,-7.0267,-7.0289,-7.0285,-7.0288,-7.0169,-7.015,-7.0295,-7.0295,-7.0295,-7.0295,-7.0295,-7.0295,-6.9825,-6.9904,-6.9907,-6.9996,-7.0014,-7.0075,-7.0097,-7.0126,-7.0149,-7.022,-7.0261,-7.027,-7.0292,-7.034,-7.0382,-7.0385,-7.0402,-7.0427,-7.0425,-7.0313,-7.0297,-7.0282,-7.0264,-7.0431,-7.0432,-7.0541,-7.0542,-7.0543]}]]